{"data":{"norad_id":81254,"intl_designator":"","name":"UNKNOWN","alt_names":[],"object_type":"UNKNOWN","status":"UNKNOWN","operator":null,"country":null,"launch_date":null,"launch_site_code":null,"launch_vehicle":null,"mission":null,"orbit_class":"UNKNOWN","rcs_meters":null,"size_class":null,"mass_kg":null,"dimensions":null,"purposes":[],"wikipedia_slug":null,"has_3d_model":false,"image_url":null,"decayed_at":null,"tle_current":{"epoch":"2026-09-18T02:05:37.486752Z","epoch_age_seconds":223566,"freshness":"STALE","line1":"1 81254U          26261.08723943  .00003271  00000+0  20732-2 0  9991","line2":"2 81254 100.3819   6.8321 0071209  53.6491 307.1216 14.03551706652051","mean_motion":14.03551706,"eccentricity":0.0071209,"inclination_deg":100.3819,"raan_deg":6.8321,"arg_perigee_deg":53.6491,"mean_anomaly_deg":307.1216,"bstar":0.0020732,"rev_number":65205,"period_min":102.59686150814,"perigee_km":829.8268409519,"apogee_km":933.21745460271,"semimajor_km":7259.6591477773,"source":"CELESTRAK","updated_at":"2026-09-20T09:00:32.384795Z"}}}